GW3595 Weather Reports


time (UTC)temp
F
wind
direction
speed
knots
gust
knots
rain 1hr
in
rain 24hr
in
rain mn
in
humidity
%
barometer
mb
20260906023704 55 12 0.0 1.7 0.00 0.00 0.00 84 1024.3
20260906023205 55 68 0.0 2.6 0.00 0.00 0.00 83 1024.2
20260906022205 56 38 0.0 2.6 0.00 0.00 0.00 84 1024.3
20260906021719 56 44 0.0 2.6 0.00 0.00 0.00 84 1024.3
20260906021205 55 348 0.9 2.6 0.00 0.00 0.00 83 1024.3
20260906020205 56 21 0.9 2.6 0.00 0.00 0.00 83 1024.3
20260906015704 56 18 0.9 1.7 0.00 0.00 0.00 84 1024.2
20260906015205 55 294 0.0 1.7 0.00 0.00 0.00 83 1024.2
20260906014705 55 294 0.0 1.7 0.00 0.00 0.00 83 1024.2
20260906014205 55 294 0.9 1.7 0.00 0.00 0.00 82 1024.1
20260906013705 55 288 0.9 1.7 0.00 0.00 0.00 82 1024.2
20260906013205 55 298 0.0 0.0 0.00 0.00 0.00 82 1024.1
20260906012205 55 12 0.0 0.9 0.00 0.00 0.00 82 1024.0
20260906011705 56 12 0.0 0.9 0.00 0.00 0.00 82 1023.9
20260906011204 56 313 0.0 2.6 0.00 0.00 0.00 82 1023.9
20260906010704 56 313 0.9 2.6 0.00 0.00 0.00 81 1023.9
20260906010205 56 313 0.9 2.6 0.00 0.00 0.00 81 1023.9
20260906005704 56 63 0.9 1.7 0.00 0.00 0.00 81 1023.8
20260906005205 56 290 0.0 1.7 0.00 0.00 0.00 81 1023.8
20260906004205 56 290 0.0 2.6 0.00 0.00 0.00 81 1023.8
20260906003704 56 40 0.0 2.6 0.00 0.00 0.00 81 1023.9
20260906003205 56 43 0.0 1.7 0.00 0.00 0.00 80 1023.8
20260906002730 57 299 0.0 1.7 0.00 0.00 0.00 80 1023.8
20260906002205 57 296 0.0 1.7 0.00 0.00 0.00 80 1023.8
20260906001704 57 296 0.0 0.0 0.00 0.00 0.00 80 1023.8
20260906001205 57 346 0.0 0.0 0.00 0.00 0.00 80 1023.7
20260906000705 57 347 0.0 1.7 0.00 0.00 0.00 80 1023.7
20260906000205 57 344 0.0 1.7 0.00 0.00 0.00 80 1023.7
20260905235705 58 346 0.0 0.9 0.00 0.00 0.00 79 1023.7
20260905235205 58 248 0.0 0.9 0.00 0.00 0.00 79 1023.7
20260905234705 58 248 0.0 1.7 0.00 0.00 0.00 79 1023.6
20260905234205 58 249 0.0 1.7 0.00 0.00 0.00 79 1023.5
20260905233705 58 248 0.0 1.7 0.00 0.00 0.00 78 1023.5
20260905233204 58 289 0.0 0.9 0.00 0.00 0.00 78 1023.4
20260905232705 58 269 0.0 0.9 0.00 0.00 0.00 79 1023.4
20260905232204 58 269 0.0 0.9 0.00 0.00 0.00 77 1023.4
20260905231704 58 269 0.0 2.6 0.00 0.00 0.00 77 1023.3
20260905231204 59 269 0.9 4.3 0.00 0.00 0.00 76 1023.3
20260905230704 59 269 1.7 4.3 0.00 0.00 0.00 75 1023.2
20260905230205 60 281 0.9 4.3 0.00 0.00 0.00 73 1023.2
20260905225205 60 28 0.9 3.5 0.00 0.00 0.00 73 1023.1
20260905224704 60 45 1.7 3.5 0.00 0.00 0.00 73 1023.1
20260905224205 59 26 1.7 3.5 0.00 0.00 0.00 74 1023.1
20260905223704 59 38 0.9 3.5 0.00 0.00 0.00 75 1023.1
20260905222704 59 53 0.9 3.5 0.00 0.00 0.00 75 1023.2
20260905222205 59 44 0.0 0.9 0.00 0.00 0.00 76 1023.1
20260905221705 59 15 0.0 2.6 0.00 0.00 0.00 74 1023.0
20260905220704 60 15 0.9 2.6 0.00 0.00 0.00 72 1023.0
20260905215704 60 61 0.0 1.7 0.00 0.00 0.00 75 1023.1
20260905214704 60 77 0.9 1.7 0.00 0.00 0.00 75 1023.1
20260905214205 60 32 0.0 3.5 0.00 0.00 0.00 73 1022.8
20260905213705 61 335 0.9 3.5 0.00 0.00 0.00 73 1023.0
20260905213204 60 319 0.9 3.5 0.00 0.00 0.00 75 1022.7
20260905212205 60 62 0.0 0.0 0.00 0.00 0.00 77 1022.7
20260905211705 60 76 0.0 0.0 0.00 0.00 0.00 76 1022.7
20260905211205 60 76 0.0 1.7 0.00 0.00 0.00 76 1022.6
20260905210704 61 39 0.0 2.6 0.00 0.00 0.00 76 1022.5
20260905210204 61 39 0.9 2.6 0.00 0.00 0.00 75 1022.5
20260905205704 61 34 0.9 1.7 0.00 0.00 0.00 77 1022.5
20260905205204 60 36 0.0 1.7 0.00 0.00 0.00 79 1022.5
20260905204704 61 36 0.0 1.7 0.00 0.00 0.00 78 1022.5
20260905203704 62 52 0.0 1.7 0.00 0.00 0.00 79 1022.4
20260905203204 62 26 0.0 1.7 0.00 0.00 0.00 78 1022.3
20260905202704 62 26 0.9 1.7 0.00 0.00 0.00 78 1022.3
20260905202205 63 37 0.9 1.7 0.00 0.00 0.00 76 1022.3
20260905201704 63 336 0.0 1.7 0.00 0.00 0.00 75 1022.1
20260905201205 63 336 0.0 1.7 0.00 0.00 0.00 77 1022.2
20260905200704 63 15 0.9 1.7 0.00 0.00 0.00 77 1022.1
20260905200205 63 11 0.0 1.7 0.00 0.00 0.00 78 1022.1
20260905195704 63 320 0.0 1.7 0.00 0.00 0.00 78 1022.0
20260905195205 63 320 0.0 1.7 0.00 0.00 0.00 79 1022.1
20260905194704 63 34 0.0 1.7 0.00 0.00 0.00 80 1022.0
20260905194205 64 34 0.0 1.7 0.00 0.00 0.00 80 1022.0
20260905192705 65 84 0.9 2.6 0.00 0.00 0.00 79 1021.7
20260905192205 65 301 0.9 2.6 0.00 0.00 0.00 80 1021.7
20260905191720 65 36 0.9 2.6 0.00 0.00 0.00 82 1021.6
20260905191204 65 68 0.9 2.6 0.00 0.00 0.00 83 1021.6
20260905190705 65 30 0.0 2.6 0.00 0.00 0.00 83 1021.6
20260905190204 65 40 0.9 2.6 0.00 0.00 0.00 82 1021.5
20260905185705 65 36 0.9 2.6 0.00 0.00 0.00 81 1021.5
20260905184705 67 279 0.9 1.7 0.00 0.00 0.00 79 1021.4
20260905184204 67 229 0.9 1.7 0.00 0.00 0.00 79 1021.2
20260905183205 67 291 0.9 1.7 0.00 0.00 0.00 82 1021.0
20260905182704 67 291 0.9 1.7 0.00 0.00 0.00 81 1020.8
20260905181704 68 51 0.0 2.6 0.00 0.00 0.00 80 1020.6
20260905181205 68 38 0.9 2.6 0.00 0.00 0.00 80 1020.5
20260905180704 68 38 0.9 2.6 0.00 0.00 0.00 79 1020.5
20260905180205 68 300 0.9 2.6 0.00 0.00 0.00 79 1020.5
20260905175704 69 322 0.0 0.9 0.00 0.00 0.00 79 1020.5
20260905175205 69 347 0.0 1.7 0.00 0.00 0.00 78 1020.2
20260905174704 70 355 0.0 1.7 0.00 0.00 0.00 77 1020.4
20260905174205 70 66 0.9 2.6 0.00 0.00 0.00 76 1020.2
20260905173704 71 355 0.9 2.6 0.00 0.00 0.00 76 1020.0
20260905173205 71 318 0.9 3.5 0.00 0.00 0.00 75 1020.0
20260905172705 71 42 1.7 3.5 0.00 0.00 0.00 74 1019.9
20260905172220 72 284 1.7 3.5 0.00 0.00 0.00 74 1019.9
20260905171705 72 210 1.7 3.5 0.00 0.00 0.00 73 1019.8
20260905171204 72 217 0.9 2.6 0.00 0.00 0.00 73 1019.9
20260905170705 72 262 0.9 2.6 0.00 0.00 0.00 73 1019.8
20260905170204 72 302 0.9 3.5 0.00 0.00 0.00 72 1019.7
20260905165705 72 233 0.9 3.5 0.00 0.00 0.00 72 1019.6
20260905165204 72 265 1.7 3.5 0.00 0.00 0.00 72 1019.6
20260905164705 73 219 1.7 3.5 0.00 0.00 0.00 71 1019.6
20260905164204 73 246 1.7 3.5 0.00 0.00 0.00 71 1019.5
20260905163204 73 146 0.9 5.2 0.00 0.00 0.00 70 1019.6
20260905162704 73 200 1.7 5.2 0.00 0.00 0.00 70 1019.4
20260905162205 73 249 2.6 5.2 0.00 0.00 0.00 70 1019.4
20260905161705 73 174 2.6 4.3 0.00 0.00 0.00 70 1019.3
20260905161204 73 199 1.7 4.3 0.00 0.00 0.00 70 1019.3
20260905160705 74 181 1.7 4.3 0.00 0.00 0.00 70 1019.3
20260905155704 74 198 1.7 4.3 0.00 0.00 0.00 70 1019.1
20260905155204 74 188 2.6 4.3 0.00 0.00 0.00 70 1019.2
20260905154705 74 199 2.6 5.2 0.00 0.00 0.00 69 1019.2
20260905154204 74 200 2.6 5.2 0.00 0.00 0.00 69 1019.2
20260905153205 75 259 2.6 5.2 0.00 0.00 0.00 66 1019.1
20260905152704 76 188 1.7 5.2 0.00 0.00 0.00 65 1019.1
20260905152205 75 217 2.6 6.1 0.00 0.00 0.00 68 1019.1
20260905151704 75 188 2.6 7.0 0.00 0.00 0.00 67 1019.2
20260905150704 74 203 3.5 6.1 0.00 0.00 0.00 68 1019.3
20260905150205 74 135 2.6 8.7 0.00 0.00 0.00 68 1019.3
20260905145704 75 190 3.5 8.7 0.00 0.00 0.00 68 1019.3
20260905144704 75 216 3.5 8.7 0.00 0.00 0.00 67 1019.4
20260905144205 75 296 4.3 8.7 0.00 0.00 0.00 68 1019.4
20260905143704 75 202 4.3 7.8 0.00 0.00 0.00 67 1019.3
20260905143205 75 262 4.3 9.6 0.00 0.00 0.00 68 1019.3
20260905142704 75 173 4.3 9.6 0.00 0.00 0.00 68 1019.3
20260905141704 74 189 5.2 11.3 0.00 0.00 0.00 69 1019.4
20260905141205 74 239 5.2 9.6 0.00 0.00 0.00 68 1019.5
20260905140705 74 223 4.3 9.6 0.00 0.00 0.00 69 1019.5
20260905140205 74 191 5.2 9.6 0.00 0.00 0.00 67 1019.4
20260905135705 74 230 6.1 9.6 0.00 0.00 0.00 68 1019.4
20260905135204 74 216 5.2 9.6 0.00 0.00 0.00 68 1019.4
20260905134704 74 202 5.2 9.6 0.00 0.00 0.00 69 1019.4
20260905134204 74 213 6.1 7.8 0.00 0.00 0.00 67 1019.5
20260905133704 75 169 4.3 7.8 0.00 0.00 0.00 66 1019.4
20260905133204 76 203 3.5 8.7 0.00 0.00 0.00 65 1019.4
20260905132704 75 162 4.3 8.7 0.00 0.00 0.00 66 1019.4
20260905132206 76 150 4.3 8.7 0.00 0.00 0.00 65 1019.3
20260905131704 76 205 2.6 7.0 0.00 0.00 0.00 65 1019.5
20260905130229 75 191 3.5 7.0 0.00 0.00 0.00 68 1019.5
20260905125704 74 211 3.5 7.8 0.00 0.00 0.00 66 1019.5
20260905124705 74 120 2.6 7.8 0.00 0.00 0.00 68 1019.6
20260905124205 73 172 2.6 7.8 0.00 0.00 0.00 68 1019.6
20260905123704 72 167 3.5 7.8 0.00 0.00 0.00 69 1019.7
20260905123205 71 219 3.5 7.8 0.00 0.00 0.00 71 1019.8
20260905122705 71 180 4.3 7.8 0.00 0.00 0.00 71 1019.8
20260905121705 71 165 4.3 7.8 0.00 0.00 0.00 72 1019.9
20260905120705 71 144 3.5 7.8 0.00 0.00 0.00 72 1020.1
20260905115704 71 182 3.5 7.0 0.00 0.00 0.00 73 1020.0
20260905114704 71 112 3.5 8.7 0.00 0.00 0.00 74 1020.0
20260905114205 72 153 3.5 8.7 0.00 0.00 0.00 70 1019.9
20260905113704 72 152 4.3 8.7 0.00 0.00 0.00 68 1019.9
20260905112205 73 193 3.5 7.8 0.00 0.00 0.00 67 1020.0
20260905111704 73 167 4.3 7.8 0.00 0.00 0.00 66 1020.0
20260905111205 74 237 4.3 7.8 0.00 0.00 0.00 65 1019.9
20260905110704 75 228 3.5 7.8 0.00 0.00 0.00 63 1019.7
20260905110205 75 187 3.5 7.8 0.00 0.00 0.00 61 1019.7
20260905105705 76 221 3.5 7.0 0.00 0.00 0.00 61 1019.6
20260905105204 76 223 3.5 7.0 0.00 0.00 0.00 61 1019.4
20260905104704 76 211 3.5 7.8 0.00 0.00 0.00 61 1019.3
20260905104205 77 150 3.5 7.8 0.00 0.00 0.00 61 1019.2
20260905103705 77 201 3.5 8.7 0.00 0.00 0.00 60 1019.2
20260905103204 77 227 4.3 8.7 0.00 0.00 0.00 60 1019.1
20260905102705 77 220 4.3 7.8 0.00 0.00 0.00 60 1019.2
20260905102204 77 207 4.3 7.8 0.00 0.00 0.00 62 1019.3
20260905101704 78 117 3.5 7.8 0.00 0.00 0.00 59 1019.3
20260905100704 77 177 4.3 9.6 0.00 0.00 0.00 60 1019.2
20260905100205 78 242 4.3 9.6 0.00 0.00 0.00 60 1019.1
20260905095704 78 146 4.3 9.6 0.00 0.00 0.00 60 1019.4
20260905094704 78 154 4.3 7.8 0.00 0.00 0.00 61 1019.3
20260905094205 78 231 3.5 6.1 0.00 0.00 0.00 63 1019.3
20260905093704 78 208 2.6 7.0 0.00 0.00 0.00 64 1019.3
20260905093205 77 210 2.6 7.0 0.00 0.00 0.00 62 1019.2
20260905092704 77 232 3.5 7.0 0.00 0.00 0.00 63 1019.1
20260905092205 76 268 4.3 7.0 0.00 0.00 0.00 63 1019.1
20260905091705 76 226 3.5 6.1 0.00 0.00 0.00 64 1019.1
20260905091204 76 257 2.6 5.2 0.00 0.00 0.00 64 1019.0
20260905090705 77 306 1.7 5.2 0.00 0.00 0.00 62 1018.9
20260905090204 78 328 1.7 6.1 0.00 0.00 0.00 64 1018.7
20260905085204 75 276 3.5 9.6 0.00 0.00 0.00 67 1018.6
20260905084705 75 68 4.3 9.6 0.00 0.00 0.00 66 1018.5
20260905084204 74 87 3.5 6.1 0.00 0.00 0.00 68 1018.4
20260905083704 72 92 1.7 4.3 0.00 0.00 0.00 71 1018.4
20260905083205 72 67 0.9 3.5 0.00 0.00 0.00 70 1018.4
20260905082206 71 54 1.7 3.5 0.00 0.00 0.00 74 1018.2
20260905081704 70 65 0.9 1.7 0.00 0.00 0.00 75 1018.3
20260905080705 69 49 0.0 1.7 0.00 0.00 0.00 79 1018.2
20260905080223 69 49 0.0 1.7 0.00 0.00 0.00 77 1018.2
20260905075705 69 49 0.0 1.7 0.00 0.00 0.00 78 1018.1
20260905075205 69 49 0.0 2.6 0.00 0.00 0.00 77 1018.0
20260905074204 69 49 0.9 3.5 0.00 0.00 0.00 76 1017.5
20260905073204 69 337 0.9 4.3 0.00 0.00 0.00 75 1017.3
20260905072705 69 34 1.7 4.3 0.00 0.00 0.00 75 1017.2
20260905071705 69 56 2.6 5.2 0.00 0.00 0.00 74 1017.1
20260905071204 69 41 2.6 5.2 0.00 0.00 0.00 74 1017.0
20260905070205 69 48 2.6 3.5 0.00 0.00 0.00 75 1017.0
20260905065233 68 34 1.7 8.7 0.00 0.00 0.00 76 1016.8
20260905064704 68 5 3.5 8.7 0.00 0.00 0.00 76 1016.7
20260905064205 68 51 3.5 7.0 0.00 0.00 0.00 76 1016.7
20260905063205 68 61 3.5 6.1 0.00 0.00 0.00 75 1016.5
20260905062705 69 51 3.5 6.1 0.00 0.00 0.00 76 1016.5
20260905062205 68 50 3.5 6.1 0.00 0.00 0.00 76 1016.5
20260905061205 68 58 2.6 6.1 0.00 0.00 0.00 76 1016.5
20260905060719 67 53 3.5 6.1 0.00 0.00 0.00 77 1016.6
20260905060204 67 30 2.6 6.1 0.00 0.00 0.00 79 1016.6
20260905055705 66 68 0.9 0.9 0.00 0.00 0.00 80 1016.4
20260905055204 66 22 0.0 2.6 0.00 0.00 0.00 81 1016.4
20260905054704 66 5 0.9 6.1 0.00 0.00 0.00 80 1016.4
20260905054205 67 9 2.6 6.1 0.00 0.00 0.00 79 1016.2
20260905053704 67 58 3.5 6.1 0.00 0.00 0.00 79 1016.1
20260905052704 66 74 3.5 4.3 0.00 0.00 0.00 79 1016.0
20260905052205 66 41 2.6 5.2 0.00 0.00 0.00 81 1016.0
20260905051704 65 57 1.7 5.2 0.00 0.00 0.00 82 1016.0
20260905051205 64 34 0.9 1.7 0.00 0.00 0.00 84 1015.8
20260905050705 64 133 0.0 1.7 0.00 0.00 0.00 84 1015.8
20260905050205 64 11 0.0 1.7 0.00 0.00 0.00 84 1015.6
20260905045205 63 315 0.9 1.7 0.00 0.00 0.00 84 1015.6
20260905044705 64 44 0.9 1.7 0.00 0.00 0.00 84 1015.5
20260905044204 63 47 0.0 1.7 0.00 0.00 0.00 85 1015.4
20260905043204 63 0 0.0 1.7 0.00 0.00 0.00 85 1015.2
20260905042204 63 25 0.0 2.6 0.00 0.00 0.00 85 1015.2
20260905041704 63 27 0.9 2.6 0.00 0.00 0.00 85 1015.1
20260905041205 63 63 0.9 2.6 0.00 0.00 0.00 86 1015.1
20260905040705 62 51 0.0 0.9 0.00 0.00 0.00 86 1015.1
20260905035704 63 13 0.0 2.6 0.00 0.00 0.00 85 1015.0
20260905035205 63 13 0.9 2.6 0.00 0.00 0.00 85 1014.9
20260905034704 63 65 0.9 1.7 0.00 0.00 0.00 84 1014.8
20260905034205 63 34 0.0 4.3 0.00 0.00 0.00 84 1014.8
20260905033705 63 40 0.9 4.3 0.00 0.00 0.00 84 1014.8
20260905033204 64 309 2.6 4.3 0.00 0.00 0.00 83 1014.8
20260905032705 64 71 2.6 4.3 0.00 0.00 0.00 83 1014.7
20260905031704 64 59 1.7 4.3 0.00 0.00 0.00 83 1014.6
20260905031205 64 42 2.6 4.3 0.00 0.00 0.00 83 1014.5
20260905030704 64 49 1.7 4.3 0.00 0.00 0.00 84 1014.5
20260905030212 64 41 1.7 4.3 0.00 0.00 0.00 83 1014.5
20260905025705 64 57 1.7 3.5 0.00 0.00 0.00 84 1014.4
20260905025205 64 55 0.9 2.6 0.00 0.00 0.00 84 1014.5
20260905024705 64 47 0.9 2.6 0.00 0.00 0.00 84 1014.4